Location: Gälforsberget
(66.6500°N, 22.4167°E)
Time: 08:12:13
(UTC+00:00)

Cosmos 2333 Rocket - Pass Details

Date: 11 April 2026
Orbit: 842 x 860 km, 70.8° (Epoch: 9 May)

Event Time Altitude Azimuth Distance (km) Brightness Sun altitude
Rises 23:16:10 0° 292° (WNW) 3,410 5.5 -14.3°
Reaches altitude 10° 23:18:39 10° 296° (WNW) 2,473 4.8 -14.3°
Maximum altitude 23:24:18 65° 18° (NNE) 927 2.7 -14.1°
Drops below altitude 10° 23:29:57 10° 101° (E) 2,472 4.7 -14.0°
Sets 23:32:26 0° 105° (ESE) 3,408 5.4 -13.9°
